Regional Weather Roundup
Issued by NWS Raleigh/Durham, NC

Current Version | Previous Version | Text Only | Print | Product List | Glossary On
Versions: 1 2 3 4 5 6 7 8 9 10 11 12 13 14 15 16 17 18 19 20 21 22 23 24 25 26 27 28
000 ASUS42 KRAH 191310 RWRRAH NORTH CAROLINA WEATHER ROUNDUP NATIONAL WEATHER SERVICE RALEIGH NC 900 AM EDT SAT AUG 19 2017 NOTE: "FAIR" INDICATES FEW OR NO CLOUDS BELOW 12,000 FEET WITH NO SIGNIFICANT WEATHER AND/OR OBSTRUCTIONS TO VISIBILITY. NCZ001-053-055-056-065-067-191400- WESTERN NORTH CAROLINA CITY SKY/WX TMP DP RH WIND PRES REMARKS ASHEVILLE SUNNY 70 63 78 N7 30.08S JEFFERSON MOSUNNY 67 59 75 CALM 30.11S MORGANTON MOSUNNY 69 69 100 CALM 30.06R HICKORY MOSUNNY 74 69 85 N3 30.01R RUTHERFORDTON PTSUNNY 74 69 83 CALM 30.02R MOUNT AIRY SUNNY 74 66 77 CALM 30.03S BOONE SUNNY 64 62 93 W12 30.12S $$ NCZ021-022-025-041-071-084-088-191400- CENTRAL NORTH CAROLINA CITY SKY/WX TMP DP RH WIND PRES REMARKS CHARLOTTE PTSUNNY 79 70 74 N7 29.99R GREENSBORO MOSUNNY 79 68 69 N6 29.98S WINSTON-SALEM SUNNY 78 68 71 NW6 30.00S RALEIGH-DURHAM MOSUNNY 80 73 79 NW5 29.96R FORT BRAGG SUNNY 84 72 67 N6 29.94R FAYETTEVILLE SUNNY 85 75 72 N3 29.94R BURLINGTON PTSUNNY 79 70 74 NW6 29.97R LAURINBURG SUNNY 83 78 85 N3 29.95S $$ NCZ011-015-027-028-043-044-047-080-103-191400- NORTHEASTERN NORTH CAROLINA CITY SKY/WX TMP DP RH WIND PRES REMARKS ROCKY MT-WILSO SUNNY 80 74 81 NW8 29.93S GREENVILLE SUNNY 82 73 74 W5 29.95R WASHINGTON PTSUNNY 81 77 86 W6 29.93S ELIZABETH CITY MOSUNNY 82 79 90 W7 29.92R MANTEO CLOUDY 81 77 88 W5 29.92R CAPE HATTERAS MOSUNNY 84 80 88 SW9 29.93S HX 97 $$ NCZ078-087-090-091-093-098-101-191400- SOUTHEASTERN NORTH CAROLINA CITY SKY/WX TMP DP RH WIND PRES REMARKS LUMBERTON CLOUDY 80 78 94 W6 29.94R GOLDSBORO MOSUNNY 81 79 94 W7 29.93R KENANSVILLE PTSUNNY 79 77 94 W3 29.94S NEW BERN CLOUDY 82 79 90 W9 29.95R CHERRY POINT PTSUNNY 85 78 80 SW13 29.95R HX 96 BEAUFORT PTSUNNY 85 82 91 W15 29.94R HX 102 JACKSONVILLE SUNNY 84 80 88 SW8 29.93S HX 97 WILMINGTON SUNNY 86 78 77 SW12 29.93S HX 98 $$

USA.gov is the U.S. government's official web portal to all federal, state and local government web resources and services.